GEFSSE_con_prob3kmehi_096.txt.gz
EHI
64 61 58 45 23 7 1 0 0 0 0 0 0 0 0 0 0 0 0 0 0 0 0 0 0 0 0 0 0 0 0 0 0 0 0 0 0 0 0 0 0 0 0
65 63 60 49 28 10 1 0 0 0 0 0 0 0 0 0 0 0 0 0 0 0 0 0 0 0 0 0 0 0 0 0 0 0 0 0 0 0 0 0 0 0 0
57 55 56 53 37 16 4 1 1 1 1 1 1 0 0 0 0 0 1 1 0 0 0 0 0 0 0 0 0 0 0 0 0 0 0 0 0 0 0 0 0 0 0
41 43 50 54 41 22 9 4 2 2 3 2 2 1 0 0 0 1 2 2 1 0 0 0 0 0 0 0 0 0 0 0 1 1 1 0 0 0 0 0 0 0 0
32 38 48 50 40 24 12 6 5 5 5 4 3 2 1 0 0 1 2 2 1 0 0 0 0 0 0 0 0 0 0 1 3 3 1 1 0 0 0 0 0 0 0
35 36 41 44 36 24 15 9 8 9 8 5 4 3 2 1 1 1 1 1 0 0 0 0 0 0 0 0 0 0 1 3 5 3 2 2 1 0 0 0 0 0 0
41 33 32 36 33 24 17 13 11 12 10 7 5 4 2 2 2 1 0 0 0 0 0 0 0 0 0 0 0 0 1 3 4 3 4 6 4 1 0 0 0 0 0
42 31 25 27 27 22 17 15 14 13 10 7 5 3 1 1 1 1 0 0 0 0 1 1 0 0 0 0 0 0 1 3 4 3 7 12 10 4 1 0 0 0 0
39 27 17 16 17 15 13 13 13 11 8 5 2 1 0 0 0 0 0 0 0 1 3 3 1 0 1 1 0 0 0 2 3 2 8 19 20 12 5 1 0 0 0
41 27 13 9 7 7 8 9 9 7 4 2 0 0 0 0 1 1 2 2 3 4 6 5 2 1 1 2 1 1 0 1 2 4 12 28 35 25 12 5 2 0 0
50 35 20 12 7 6 7 9 8 6 4 2 1 2 2 2 3 4 6 8 8 8 8 6 4 2 2 2 3 3 1 0 1 6 22 43 50 39 23 11 5 2 1
58 46 34 25 17 14 15 15 12 13 14 11 9 8 7 8 8 10 15 17 14 10 7 6 6 4 2 3 5 5 3 1 1 9 30 53 60 51 36 20 10 5 3
58 52 47 42 34 30 30 26 22 25 30 28 25 21 18 18 17 19 23 23 18 12 8 8 8 6 5 7 7 4 3 1 1 10 32 56 63 56 46 32 19 10 7
55 55 57 57 51 46 43 39 36 38 40 41 41 34 28 29 28 27 25 22 19 16 14 13 11 9 10 10 7 4 3 3 3 11 32 55 62 57 49 40 28 18 12
54 58 63 63 60 57 54 50 48 47 45 45 45 39 34 35 36 32 24 20 18 17 17 16 12 10 11 11 9 6 4 4 4 10 29 50 59 57 51 43 33 23 18
53 59 61 58 60 60 55 49 43 43 42 41 40 36 32 34 34 28 22 19 17 16 14 13 11 9 8 9 9 7 6 6 5 9 21 39 50 51 47 44 38 30 25
55 60 56 49 50 52 46 36 29 29 29 30 31 28 25 26 24 19 16 15 15 14 12 10 9 8 7 7 6 6 6 8 8 9 15 25 35 37 37 39 41 38 35
57 59 53 43 41 42 38 27 20 18 19 20 21 19 16 14 13 11 10 10 11 11 11 10 9 8 7 5 4 4 6 8 10 9 11 16 21 26 29 32 36 39 38
53 54 50 42 37 34 29 22 16 14 13 12 12 11 8 5 5 7 8 8 8 9 10 10 9 7 5 5 4 4 4 7 9 8 7 10 15 21 25 29 33 32 29
49 49 47 42 36 29 23 18 14 11 7 5 4 5 4 3 3 5 6 6 7 8 9 9 7 4 3 4 3 2 3 5 8 7 5 5 10 15 19 26 32 28 22
47 47 47 45 37 28 24 20 15 9 5 2 1 3 4 3 4 6 7 5 5 7 7 5 4 2 2 2 1 0 1 3 5 6 5 4 6 9 13 20 27 27 21
41 43 46 45 37 28 24 20 15 9 4 1 2 5 6 6 6 8 8 5 4 4 3 2 1 1 1 1 0 0 0 1 1 2 3 4 5 7 10 13 20 23 20
29 34 39 39 33 24 17 13 11 8 4 3 6 10 11 10 9 10 9 6 4 2 0 0 0 0 0 0 0 1 1 0 0 0 1 2 4 7 7 7 11 14 14
20 27 35 36 29 20 13 9 8 7 6 7 11 14 13 11 8 8 8 7 4 1 0 0 0 0 0 0 0 1 1 1 0 0 1 1 2 4 4 3 5 7 7
17 25 36 39 32 22 16 12 9 9 8 9 10 10 8 6 5 5 6 6 4 1 0 0 0 0 0 0 0 1 1 1 0 0 1 1 1 1 1 1 1 2 2
17 24 37 45 38 26 19 15 13 11 8 7 6 4 3 2 2 3 5 6 4 1 0 0 0 0 0 0 0 0 0 1 0 0 1 1 0 0 0 1 0 1 1

GEFSSE_con_prob3kmehi_102.txt.gz
EHI
21 26 40 56 60 49 35 24 17 13 11 10 11 10 6 3 2 2 1 0 0 0 0 0 0 0 0 0 0 0 0 0 0 0 0 0 0 0 1 2 2 1 0
39 37 45 58 60 50 35 23 16 11 8 6 7 6 4 2 1 1 0 0 0 0 0 0 0 0 0 0 0 0 0 0 0 0 0 0 0 0 1 2 1 0 0
65 54 51 60 62 51 35 22 15 10 5 3 3 3 2 0 0 0 0 0 0 0 0 0 0 0 0 0 0 0 0 0 0 0 0 0 0 0 1 1 0 0 0
78 65 57 64 66 52 35 22 14 8 4 2 1 1 0 0 0 0 0 0 0 0 0 0 0 0 0 0 0 0 0 0 0 0 0 0 0 0 0 0 0 0 0
78 71 67 72 70 54 37 23 13 6 2 1 0 0 0 0 0 0 0 0 0 0 0 0 0 0 0 0 0 0 0 0 0 0 0 0 0 0 0 0 0 0 0
78 73 73 77 73 59 42 27 15 7 2 1 0 0 0 0 0 0 0 0 0 0 0 0 0 0 0 0 0 0 0 0 0 0 0 0 0 0 0 0 0 0 0
79 72 72 76 72 61 48 32 19 11 4 1 0 0 0 0 0 0 0 0 0 0 0 0 0 0 0 0 0 0 0 0 0 0 0 0 0 0 1 1 0 0 0
76 68 64 65 63 56 46 33 23 15 7 3 1 1 1 0 0 0 0 0 0 0 0 0 0 0 0 0 0 1 2 1 0 0 0 0 1 3 5 4 2 0 0
62 57 51 48 47 43 37 30 24 17 10 4 3 2 1 0 0 0 0 0 0 0 0 0 0 0 0 0 1 3 2 1 0 0 0 0 2 7 9 7 4 2 1
41 39 35 32 30 29 27 25 22 16 10 5 4 4 3 1 0 0 0 0 0 0 0 1 1 0 0 0 1 2 1 0 0 0 0 0 4 11 13 10 7 4 2
21 21 20 20 20 19 19 18 16 13 8 4 4 5 4 2 0 0 0 0 0 0 0 2 2 1 0 0 0 0 0 0 0 0 0 1 7 16 20 17 12 8 5
10 9 9 10 11 12 13 12 11 9 6 3 2 3 3 1 0 0 1 1 0 0 1 2 4 2 0 0 0 0 0 0 0 0 0 3 12 22 26 23 18 14 11
12 9 7 7 8 10 11 10 8 6 4 2 2 3 2 0 0 0 1 2 1 1 2 3 4 2 0 0 0 0 0 0 0 0 1 5 14 24 28 25 21 19 17
21 18 15 13 13 14 12 9 7 5 4 2 2 2 1 0 0 1 2 3 3 2 2 3 3 1 0 1 1 1 0 0 0 0 1 4 13 23 27 24 18 17 18
30 27 23 22 22 20 14 9 7 5 3 2 1 1 1 0 0 2 3 3 3 2 1 1 1 1 1 1 1 1 0 0 0 0 0 3 10 19 23 19 13 11 12
33 31 28 27 28 24 16 10 7 5 3 2 1 1 1 1 1 1 2 2 1 1 0 0 0 1 1 1 0 0 0 0 0 0 0 1 6 13 18 15 11 9 10
35 33 30 28 28 23 16 11 8 5 4 2 2 2 2 2 1 1 1 1 0 0 0 0 0 0 0 0 0 0 0 0 0 0 0 0 2 7 10 11 10 11 11
35 32 27 23 21 17 13 10 7 5 4 2 2 2 2 1 1 2 2 1 0 0 0 0 0 0 0 0 0 0 0 0 0 0 0 0 0 2 4 5 7 9 11
25 23 19 15 13 12 11 8 4 2 2 1 0 1 1 0 0 1 1 1 0 0 0 0 0 0 0 0 0 0 0 0 0 0 0 0 0 0 1 2 3 5 7
14 13 12 11 9 9 9 6 2 0 0 0 0 0 0 0 0 0 0 0 0 0 0 0 0 0 0 0 0 0 0 0 0 0 0 0 0 0 0 0 1 2 3
9 10 11 10 8 5 5 4 1 0 0 0 0 0 0 0 0 0 0 0 0 0 0 0 0 0 0 0 0 0 0 0 0 0 0 0 0 0 0 0 0 1 1
9 10 11 9 5 2 1 1 0 0 0 0 0 0 0 0 0 0 0 0 0 0 0 0 0 0 0 0 0 0 0 0 0 0 0 0 0 0 0 0 0 0 0
10 10 9 6 3 0 0 0 0 0 0 0 0 0 0 0 0 0 0 0 0 0 0 0 0 0 0 0 0 0 0 0 0 0 0 0 0 0 0 0 0 0 0
8 6 5 3 1 0 0 0 0 0 0 0 0 0 0 0 0 0 0 0 0 0 0 0 0 0 0 0 0 0 0 0 0 0 0 0 0 0 0 0 0 0 0
4 3 3 1 0 0 0 0 0 0 0 0 0 0 0 0 0 0 0 0 0 0 0 0 0 0 0 0 0 0 0 0 0 0 0 0 0 0 0 0 0 0 0
2 3 2 1 0 0 0 0 0 0 0 0 0 0 0 0 0 0 0 0 0 0 0 0 0 0 0 0 0 0 0 0 0 0 0 0 0 0 0 0 0 0 0

GEFSSE_con_prob3kmehi_108.txt.gz
EHI
21 21 27 40 56 66 65 60 56 53 47 40 33 22 11 5 3 2 1 0 0 0 0 0 0 0 0 0 0 1 2 2 1 0 0 0 0 0 1 1 1 0 0
30 27 31 46 60 64 60 55 52 49 43 34 26 18 9 4 2 1 0 0 0 0 0 0 0 0 0 0 0 0 1 1 1 0 0 0 0 0 0 0 0 0 0
46 36 35 49 62 60 53 49 46 41 34 24 18 13 7 3 1 0 0 0 0 0 0 0 0 0 0 0 0 0 0 0 0 0 0 0 0 0 0 0 0 0 0
53 41 38 51 60 55 48 44 41 34 25 16 12 9 5 2 1 0 0 0 0 0 0 0 0 0 0 0 0 0 0 0 0 0 0 0 0 0 0 0 0 0 0
50 43 43 54 57 51 45 41 37 30 20 12 9 7 3 1 0 0 0 0 0 0 0 0 0 0 0 0 0 0 0 0 0 0 0 0 0 0 0 0 0 0 0
49 45 46 53 54 47 41 35 30 24 16 10 7 5 2 1 0 0 0 0 0 0 0 0 0 0 0 0 0 0 0 0 0 0 0 0 0 0 0 0 0 0 0
54 49 47 50 48 41 34 28 23 18 11 7 5 4 3 1 1 0 0 0 0 0 0 0 0 0 0 0 0 0 0 0 0 0 0 0 0 0 0 0 0 1 1
60 56 51 46 41 35 30 25 20 14 8 6 5 4 3 3 2 1 0 0 0 0 0 0 0 0 0 0 0 0 0 0 0 0 0 0 0 0 0 0 1 2 2
62 60 54 43 35 31 27 24 20 14 10 7 6 5 4 3 3 1 0 0 0 0 0 0 0 0 0 0 0 0 1 1 0 0 0 0 0 0 0 0 1 2 2
57 56 53 46 40 34 28 24 20 15 11 8 5 4 3 3 3 2 1 0 0 0 0 0 0 1 1 0 0 0 1 1 0 0 0 0 0 0 0 0 0 1 1
43 45 46 48 49 42 32 24 18 14 11 8 6 4 3 3 3 2 1 1 1 0 0 1 2 3 2 1 0 0 1 1 0 0 0 0 0 0 0 0 0 0 1
32 32 35 42 48 43 31 22 14 11 9 9 7 5 3 3 3 2 1 2 1 1 1 1 3 4 3 2 0 0 0 0 0 0 0 0 0 0 0 0 1 2 2
28 25 26 32 36 32 23 16 10 8 8 8 7 5 2 1 2 1 0 1 1 0 0 1 2 3 2 1 0 0 0 0 0 0 0 0 0 0 0 1 2 3 3
24 21 20 22 22 18 14 9 7 5 5 5 4 2 0 0 0 0 0 0 0 0 1 1 0 1 1 0 0 0 0 0 0 0 0 0 0 1 1 2 3 3 3
18 15 15 14 12 9 8 6 4 3 3 3 2 0 0 0 0 0 0 0 0 0 1 2 1 0 0 0 0 0 0 0 0 0 0 1 1 1 3 4 3 2 1
12 11 10 8 6 5 5 3 1 1 2 2 1 1 0 0 0 0 0 0 0 0 1 1 1 0 0 0 0 0 0 0 0 0 0 0 0 1 2 4 4 3 2
7 7 6 5 3 3 2 1 0 0 1 2 2 1 0 0 0 0 0 0 0 0 0 0 0 0 0 0 0 0 0 0 0 0 0 0 0 0 1 1 2 3 4
4 4 5 4 3 2 1 0 0 0 0 1 1 1 0 0 0 0 0 0 0 0 0 0 0 0 0 0 0 0 0 0 0 0 0 0 0 0 0 0 0 2 3
2 2 5 6 5 2 1 0 0 0 0 0 0 0 0 0 0 0 0 0 0 0 0 0 0 0 0 0 0 0 0 0 0 0 0 0 0 0 0 0 0 0 1
2 2 4 7 5 2 1 0 0 0 0 0 0 0 0 0 0 0 0 0 0 0 0 0 0 0 0 0 0 0 0 0 0 0 0 0 0 0 0 0 0 0 0
3 3 4 5 3 1 0 0 0 0 0 0 0 0 0 0 0 0 0 0 0 0 0 0 0 0 0 0 0 0 0 0 0 0 0 0 0 0 0 0 0 0 0
1 2 3 3 1 0 0 1 0 0 0 0 0 0 0 0 0 0 0 0 0 0 0 0 0 0 0 0 0 0 0 0 0 0 0 0 0 0 0 0 0 0 0
0 1 2 2 1 0 0 0 0 0 0 0 0 0 0 0 0 0 0 0 0 0 0 0 0 0 0 0 0 0 0 0 0 0 0 0 0 0 0 0 0 0 0
0 0 1 1 0 0 0 0 0 0 0 0 0 0 0 0 0 0 0 0 0 0 0 0 0 0 0 0 0 0 0 0 0 0 0 0 0 0 0 0 0 0 0
0 0 0 0 0 0 0 0 0 0 0 0 0 0 0 0 0 0 0 0 0 0 0 0 0 0 0 0 0 0 0 0 0 0 0 0 0 0 0 0 0 0 0
0 0 0 0 0 0 0 0 0 0 0 0 0 0 0 0 0 0 0 0 0 0 0 0 0 0 0 0 0 0 0 0 0 0 0 0 0 0 0 0 0 0 0

GEFSSE_con_prob3kmehi_114.txt.gz
EHI
6 10 11 9 9 13 19 21 20 17 15 12 9 7 6 3 1 0 0 0 0 0 0 0 0 0 0 0 0 0 0 0 0 0 0 0 0 0 0 0 0 0 0
10 11 11 10 11 16 19 22 23 20 18 14 11 8 5 2 0 0 0 0 0 0 0 0 0 0 0 0 0 0 0 0 0 0 0 0 0 0 0 0 0 0 0
12 11 10 11 15 19 21 24 25 23 21 17 12 8 4 1 0 0 0 0 0 0 0 0 0 0 0 0 0 0 0 0 0 0 0 0 0 0 0 0 0 0 0
12 11 10 12 15 19 23 26 26 24 20 15 10 6 2 1 0 0 0 0 0 0 0 0 0 0 0 0 0 0 0 0 0 0 0 0 0 0 0 0 0 0 0
11 11 12 14 14 16 21 26 24 20 16 11 7 4 1 0 0 0 0 0 0 0 0 0 0 0 0 0 0 0 0 0 0 0 0 0 0 0 0 0 0 0 0
9 11 14 15 13 12 16 19 18 15 12 9 6 3 1 0 0 0 0 0 0 0 0 0 0 0 0 0 0 0 0 0 0 0 0 0 0 0 0 0 0 0 0
7 10 14 15 11 9 11 12 12 12 11 8 5 3 1 0 0 0 0 0 1 1 1 0 0 0 0 0 0 0 0 0 0 0 0 0 0 0 0 0 0 0 0
6 10 13 12 8 7 8 9 9 9 9 6 3 1 0 0 0 0 0 0 1 2 1 0 0 0 0 0 0 0 0 0 0 0 0 0 0 0 0 0 0 0 0
8 10 11 8 5 5 7 8 8 8 7 5 2 0 0 0 1 1 0 0 1 1 1 0 0 0 0 0 0 0 0 0 0 0 0 0 0 0 0 0 0 0 0
11 11 9 6 4 3 4 7 7 7 6 3 1 0 0 0 1 1 1 0 0 0 0 0 0 0 0 0 0 0 0 0 0 0 0 0 0 0 0 0 0 0 0
16 12 9 7 6 4 4 5 5 4 2 2 1 0 0 0 1 1 1 1 0 0 0 0 0 0 0 0 1 1 0 0 0 0 0 0 0 0 0 0 0 0 0
22 16 10 8 6 6 7 7 6 4 2 1 1 1 0 0 0 1 3 2 0 0 0 0 0 0 0 0 1 1 0 0 0 0 0 0 0 0 0 0 0 0 0
28 21 13 11 11 12 12 10 8 6 3 2 2 1 1 2 3 4 4 3 1 0 0 0 0 0 1 1 1 1 0 0 0 0 1 2 1 1 0 0 0 0 0
30 23 17 18 20 19 16 10 6 4 3 3 4 3 3 5 6 6 6 5 2 0 0 0 0 1 1 1 0 0 0 0 0 0 2 3 2 1 1 0 0 0 0
25 22 20 22 24 23 18 10 3 1 3 5 6 5 4 6 6 5 6 6 3 1 1 1 1 1 1 1 0 0 0 0 0 0 2 3 3 2 1 1 0 0 0
19 19 19 20 20 21 17 9 3 3 5 6 6 5 5 5 4 3 5 4 2 1 1 2 1 1 1 0 0 0 0 0 0 0 2 4 3 2 1 0 1 1 1
18 17 15 14 15 15 13 8 5 4 5 5 5 6 5 5 4 3 3 3 1 0 1 2 1 0 0 0 0 0 0 0 0 0 1 3 3 2 1 0 2 3 2
18 15 12 9 10 12 13 11 7 5 5 5 5 5 4 3 2 2 2 2 1 0 1 2 2 1 0 0 0 0 0 0 0 0 0 1 2 2 2 2 3 4 2
16 14 11 9 9 11 14 13 9 6 4 3 4 5 3 1 0 1 1 2 2 1 0 1 1 1 0 0 0 0 0 0 0 0 0 1 2 2 2 4 5 4 2
14 13 12 12 11 11 13 12 9 6 3 2 3 4 2 0 0 0 1 2 3 2 1 0 0 0 0 0 0 0 0 0 0 0 0 0 1 1 1 2 4 3 2
11 11 13 14 13 11 11 10 9 6 4 3 3 3 1 0 0 0 1 2 3 3 2 1 1 1 0 0 0 0 0 0 0 0 0 0 0 0 0 0 1 2 2
8 9 11 12 10 10 10 10 10 8 5 3 3 1 0 0 0 0 0 1 3 3 3 3 2 2 1 0 0 0 0 0 0 0 0 0 0 0 0 0 0 0 1
7 7 7 7 6 7 9 9 8 7 5 3 3 1 0 0 0 0 0 1 2 2 2 2 2 2 1 0 0 0 0 0 0 0 0 0 0 0 0 0 0 0 0
7 7 7 6 5 5 6 5 5 4 4 4 3 2 1 0 0 0 0 0 1 1 1 1 1 1 0 0 0 0 0 0 0 0 0 0 0 0 0 0 0 0 0
8 8 8 8 6 4 4 3 3 4 5 5 4 3 1 0 0 0 0 0 0 0 0 0 0 0 0 0 0 0 0 0 0 0 0 0 0 0 0 0 0 0 0
9 8 8 8 7 4 3 3 3 4 5 6 5 3 1 0 0 0 0 0 0 0 0 0 0 0 0 0 0 0 0 0 0 0 0 0 0 0 0 0 0 0 0

GEFSSE_con_prob3kmehi_120.txt.gz
EHI
49 45 40 25 8 1 0 0 0 0 0 0 0 0 0 0 0 0 0 0 0 0 0 0 0 0 0 0 0 0 0 0 0 0 0 1 1 1 0 0 0 0 0
53 49 43 29 11 2 0 0 0 0 0 0 0 0 0 0 0 0 0 0 0 0 0 0 0 0 0 0 0 0 0 0 0 0 0 0 0 0 0 0 0 0 0
55 48 41 31 14 3 1 0 0 0 0 0 0 0 0 0 0 0 0 0 0 0 0 0 0 0 0 0 0 0 0 0 0 0 0 0 0 0 0 0 0 0 0
50 43 39 32 18 6 2 1 1 2 2 1 0 0 0 0 0 0 0 0 0 0 0 0 0 0 0 0 0 0 0 0 0 1 0 0 0 0 0 0 0 0 0
45 44 43 37 23 10 4 3 3 4 5 3 1 0 0 0 0 0 0 0 0 0 0 0 0 0 0 0 0 0 0 0 1 1 1 0 0 0 0 0 0 0 0
46 47 47 42 29 15 8 6 6 6 4 2 1 0 0 0 0 0 0 0 0 0 0 0 0 0 0 0 0 0 1 2 2 2 2 1 0 0 0 0 0 0 0
50 48 45 43 33 18 10 9 8 5 2 1 0 0 0 0 0 0 0 0 0 0 0 0 0 0 0 0 0 0 2 5 5 5 5 3 0 0 0 0 0 0 0
55 48 42 36 27 17 11 7 6 4 1 0 0 0 0 0 0 0 0 0 0 0 0 0 0 0 0 0 0 0 4 8 7 5 7 4 1 1 1 0 0 0 0
59 49 35 23 16 11 7 4 4 3 1 1 0 0 0 0 0 0 0 0 0 0 0 0 0 0 0 0 0 0 3 7 6 5 6 4 2 2 1 0 0 0 0
61 48 28 14 8 5 3 3 3 3 3 2 1 0 0 0 1 1 1 1 0 0 0 0 0 0 0 0 1 1 2 3 3 4 6 4 3 3 1 0 0 0 0
65 50 30 18 10 4 3 4 4 3 3 3 1 1 1 1 1 2 3 3 1 0 0 0 0 0 0 1 4 6 6 3 2 5 7 8 7 5 2 0 0 0 0
69 56 40 28 18 12 10 9 5 3 3 3 3 2 3 2 2 3 5 4 2 0 0 0 0 0 0 2 6 9 8 4 3 5 8 10 10 7 3 1 0 0 1
70 60 48 39 32 27 22 14 7 4 3 4 5 5 3 4 6 7 6 4 2 0 0 0 0 0 0 1 4 5 4 3 3 6 8 8 8 6 4 2 1 0 1
66 61 55 53 50 44 32 17 9 5 4 5 7 7 6 8 12 12 10 6 2 1 1 1 1 0 0 1 1 1 1 2 3 5 6 7 7 5 4 3 1 1 1
62 62 63 64 61 53 40 27 17 12 10 11 10 9 11 15 17 16 13 7 4 2 2 2 1 0 0 0 0 0 1 2 3 4 5 7 7 6 5 5 3 2 2
62 66 68 67 63 55 45 37 29 22 20 20 18 15 16 19 18 15 11 8 6 3 2 2 1 0 0 0 0 0 0 1 2 3 4 5 6 7 7 6 5 4 4
61 64 63 59 57 53 45 38 33 29 25 26 26 22 18 17 16 11 7 6 4 2 1 1 0 0 0 0 0 0 0 0 1 1 2 3 3 4 7 7 6 5 5
57 58 55 50 48 47 43 37 34 32 29 28 26 22 16 12 10 7 3 2 1 1 1 0 0 0 0 0 0 0 0 0 1 0 0 1 1 2 5 6 5 5 5
53 54 52 48 42 40 40 38 36 35 30 26 23 18 12 7 5 3 1 0 0 0 1 1 1 1 0 0 0 0 0 0 0 0 0 0 0 1 2 3 3 3 3
49 50 51 47 41 36 36 36 35 30 26 22 20 17 10 5 3 1 0 0 0 1 2 3 3 2 1 1 0 0 0 0 0 0 0 0 0 1 1 2 2 1 1
43 45 47 44 39 35 34 31 27 24 22 19 17 13 8 4 2 1 0 0 0 2 4 5 5 3 2 2 1 0 0 0 1 0 0 0 0 1 2 4 3 1 0
37 38 38 36 34 32 30 26 24 24 22 20 18 12 7 5 3 1 1 1 1 3 5 6 5 3 2 3 2 1 0 0 0 0 0 0 0 0 2 3 2 1 0
30 31 30 29 30 28 25 22 24 24 21 21 21 16 10 6 3 1 1 1 1 3 4 4 5 3 2 2 2 1 0 0 0 0 0 0 0 0 0 1 1 0 0
23 25 28 29 30 27 21 18 20 19 17 18 20 19 13 6 2 0 1 1 1 1 2 3 3 2 1 1 1 0 0 0 0 0 0 0 0 0 0 0 0 0 0
20 23 28 32 33 27 19 17 17 15 16 17 19 19 12 5 2 1 1 2 1 0 1 1 1 1 0 0 0 0 0 0 0 0 0 0 0 0 0 0 0 0 0
20 23 28 33 34 27 19 17 17 16 19 22 21 15 9 4 2 2 3 3 1 0 0 0 0 0 0 0 0 0 0 0 0 0 0 0 0 0 0 0 0 0 0